Simultaneous Nadir Overpasses (SNOs) Predictions

Prediction of SNOs between METOP-C and LANDSAT-8 Satellite Orbit:

Table of predicted SNOs for the next 14.0 days since TLE Epoch: 11/26/2022
Index Date (METOP-C) Time (METOP-C) Lat,Lon (METOP-C) SZA (METOP-C ) Date (LANDSAT-8) Time (LANDSAT-8) Lat,Lon (LANDSAT-8) SZA (LANDSAT-8 ) Distance(km) Time Diff (sec)
1 11/26/2022 21:56:48 81.10,-109.82 104.36 11/26/2022 21:57:14 81.10,-109.76 104.38 1.07 26
2 11/26/2022 22:47:28 -81.12, 57.98 75.58 11/26/2022 22:46:40 -81.12, 58.15 75.58 2.92 48
3 11/29/2022 17:31:10 81.11, -43.18 104.86 11/29/2022 17:31:28 81.11, -43.14 104.87 0.76 18
4 11/29/2022 18:21:49 -81.13, 124.96 75.04 11/29/2022 18:20:54 -81.13, 124.79 75.08 2.85 55
5 12/02/2022 13:05:33 81.11, 23.42 105.29 12/02/2022 13:05:43 81.12, 23.37 105.29 0.91 10
6 12/02/2022 13:56:12 -81.14,-168.49 74.61 12/02/2022 13:55:09 -81.14,-168.67 74.66 3.17 63
7 12/05/2022 07:50:01 -80.18, -93.11 76.50 12/05/2022 07:51:15 -79.81, -91.66 76.70 50.15 74
8 12/05/2022 08:39:57 81.11, 89.60 105.62 12/05/2022 08:39:58 81.11, 89.77 105.64 3.07 1
9 12/05/2022 09:30:36 -81.13,-102.36 74.29 12/05/2022 09:29:24 -81.14,-102.25 74.31 1.97 72
10 12/08/2022 03:23:40 -81.09, -11.91 74.17 12/08/2022 03:24:47 -81.08, -11.96 74.15 1.17 67



Historial Predications of SNOs between METOP-C and LANDSAT-8
